Harvard, Illinois, United States (60033)
Lat: 42.42N, Lon: 88.61W
Wx Zone: ILZ005
Local Info
Past Weather Observations for Today

NOTE: This archive is for the closest National Weather Service station to Harvard. Information may differ from the station used for current weather conditions.

Click here for Long-term Archive

Time Weather Temperature Dewpoint Humidity Pressure Winds Precip Visibility
13:15
Clear
66°F / 19°C 30°F / -1°C 26% 29.92 in
(1013 mb)
NW 20.7 mph
(NW 33 kph)
- 10SM
12:55
Clear
66°F / 19°C 30°F / -1°C 26% 29.92 in
(1013 mb)
WNW 23 mph
(WNW 37 kph)
- 10SM
12:35
Clear
66°F / 19°C 34°F / 1°C 30% 29.92 in
(1013 mb)
WNW 15 mph
(WNW 24 kph)
- 10SM
12:15
Clear
68°F / 20°C 34°F / 1°C 28% 29.92 in
(1013 mb)
W 15 mph
(W 24 kph)
- 10SM
11:55
Clear
66°F / 19°C 34°F / 1°C 30% 29.92 in
(1013 mb)
WNW 15 mph
(WNW 24 kph)
- 10SM
11:35
Clear
66°F / 19°C 37°F / 3°C 35% 29.92 in
(1013 mb)
NW 13.8 mph
(NW 22 kph)
- 10SM
11:15
Clear
64°F / 18°C 37°F / 3°C 37% 29.95 in
(1014 mb)
NW 17.3 mph
(NW 28 kph)
- 10SM
10:55
Clear
64°F / 18°C 37°F / 3°C 37% 29.95 in
(1014 mb)
WNW 17.3 mph
(WNW 28 kph)
- 10SM
10:35
Clear
64°F / 18°C 37°F / 3°C 37% 29.95 in
(1014 mb)
NW 19.6 mph
(NW 32 kph)
- 10SM
10:15
Clear
63°F / 17°C 41°F / 5°C 45% 29.95 in
(1014 mb)
WNW 12.7 mph
(WNW 20 kph)
- 10SM
09:55
Clear
63°F / 17°C 41°F / 5°C 45% 29.95 in
(1014 mb)
NW 15 mph
(NW 24 kph)
- 10SM
09:35
Clear
63°F / 17°C 45°F / 7°C 52% 29.95 in
(1014 mb)
NW 12.7 mph
(NW 20 kph)
- 10SM
09:15
Clear
61°F / 16°C 45°F / 7°C 55% 29.95 in
(1014 mb)
NW 13.8 mph
(NW 22 kph)
- 10SM
08:55
Clear
59°F / 15°C 46°F / 8°C 63% 29.95 in
(1014 mb)
NW 10.4 mph
(NW 17 kph)
- 10SM
08:35
Clear
59°F / 15°C 48°F / 9°C 68% 29.95 in
(1014 mb)
NW 11.5 mph
(NW 19 kph)
- 10SM
08:15
Clear
57°F / 14°C 50°F / 10°C 77% 29.95 in
(1014 mb)
NW 11.5 mph
(NW 19 kph)
- 10SM
07:55
Clear
57°F / 14°C 50°F / 10°C 77% 29.92 in
(1013 mb)
NW 12.7 mph
(NW 20 kph)
- 10SM
07:35
Clear
55°F / 13°C 52°F / 11°C 88% 29.92 in
(1013 mb)
WNW 6.9 mph
(WNW 11 kph)
- 7SM
07:15
Clear
54°F / 12°C 52°F / 11°C 94% 29.92 in
(1013 mb)
WNW 6.9 mph
(WNW 11 kph)
- 7SM
06:55
Clear
Fog And Mist
54°F / 12°C 52°F / 11°C 94% 29.92 in
(1013 mb)
WNW 8.1 mph
(WNW 13 kph)
- 5SM
06:35
Clear
Fog And Mist
52°F / 11°C 52°F / 11°C 100% 29.92 in
(1013 mb)
W 5.8 mph
(W 9 kph)
- 5SM
06:15
Clear
Fog And Mist
54°F / 12°C 52°F / 11°C 94% 29.89 in
(1012 mb)
SSW 6.9 mph
(SSW 11 kph)
- 4SM
05:55
Clear
Fog And Mist
54°F / 12°C 52°F / 11°C 94% 29.92 in
(1013 mb)
W 8.1 mph
(W 13 kph)
- 5SM
05:35
Clear
Fog And Mist
52°F / 11°C 52°F / 11°C 100% 29.89 in
(1012 mb)
SSW 5.8 mph
(SSW 9 kph)
- 4SM
05:15
Clear
Fog And Mist
52°F / 11°C 52°F / 11°C 100% 29.89 in
(1012 mb)
SSW 4.6 mph
(SSW 7 kph)
- 4SM
04:55
Clear
Fog And Mist
52°F / 11°C 52°F / 11°C 100% 29.89 in
(1012 mb)
W 4.6 mph
(W 7 kph)
- 3SM
04:35
Clear
Fog And Mist
52°F / 11°C 50°F / 10°C 94% 29.89 in
(1012 mb)
Calm - 3SM
04:15
Clear
Fog And Mist
54°F / 12°C 52°F / 11°C 94% 29.89 in
(1012 mb)
SS 1000 W 3.5 mph
(SS 1000 W 6 kph)
- 4SM
03:55
Clear
Fog And Mist
54°F / 12°C 52°F / 11°C 94% 29.89 in
(1012 mb)
SSW 4.6 mph
(SSW 7 kph)
- 5SM
03:35
Clear
Fog And Mist
54°F / 12°C 52°F / 11°C 94% 29.89 in
(1012 mb)
SSW 4.6 mph
(SSW 7 kph)
- 5SM
03:15
Partly Cloudy
Fog And Mist
54°F / 12°C 54°F / 12°C 100% 29.89 in
(1012 mb)
W 6.9 mph
(W 11 kph)
- 5SM
02:55
Mostly Cloudy
Fog And Mist
54°F / 12°C 54°F / 12°C 100% 29.89 in
(1012 mb)
W 8.1 mph
(W 13 kph)
- 5SM
02:35
Overcast
Fog And Mist
54°F / 12°C 54°F / 12°C 100% 29.89 in
(1012 mb)
W 8.1 mph
(W 13 kph)
- 5SM
01:55
Clear
54°F / 12°C 54°F / 12°C 100% 29.89 in
(1012 mb)
W 5.8 mph
(W 9 kph)
- 7SM
01:35
Partly Cloudy
52°F / 11°C 52°F / 11°C 100% 29.89 in
(1012 mb)
W 6.9 mph
(W 11 kph)
- 7SM
01:15
Partly Cloudy
52°F / 11°C 50°F / 10°C 94% 29.89 in
(1012 mb)
SW 4.6 mph
(SW 7 kph)
- 7SM
00:55
Clear
52°F / 11°C 50°F / 10°C 94% 29.89 in
(1012 mb)
SW 4.6 mph
(SW 7 kph)
- 10SM
00:35
Clear
50°F / 10°C 48°F / 9°C 94% 29.89 in
(1012 mb)
SW 5.8 mph
(SW 9 kph)
- 10SM
00:15
Clear
50°F / 10°C 48°F / 9°C 94% 29.89 in
(1012 mb)
SSW 5.8 mph
(SSW 9 kph)
- 10SM
Time Weather Temperature Dewpoint Humidity Pressure Winds Precip Visibility


Weather for websites

WeatherForYou.com, LLC is not responsible for any damages or problems caused by this service. Current weather conditions are obtained from the closest station including government and personal stations which may have varying degrees of accuracy. Weather forecasts are derived from the NOAA NDFD. Like all things, this site belongs to Jesus Christ... He just trusts me to maintain it. If you have any questions or comments email webmaster@weatherforyou.com

Copyright © 2014, WeatherForYou.com LLC. All rights reserved.